Hourly Data Report for September 10, 2020

OTTAWA INTL A
ONTARIO
Current Station Operator: NAVCAN

45°19'00.000" N
75°40'00.000" W
114.90 m
6106001
71628
YOW

Download Data

Hourly Data (September 2020)
Hourly Data Report for September 10, 2020
TIME Temp Definition
°C
Dew Point Definition
°C
Rel Hum Definition
%
Wind Dir Definition
10's deg

Wind Spd Definition
km/h
Visibility Definition
km
Stn Press Definition
kPa
Hmdx Definition


Wind Chill Definition


Weather Definition


00:00 11.6 10.9 96 6 12 24.1 101.19     LegendNANA
01:00 11.7 11.2 97 6 12 24.1 101.09     Cloudy
02:00 11.8 11.4 98 7 9 2.0 100.99     Fog
03:00 11.8 11.6 99 6 8 0.6 100.95     Fog
04:00 12.0 11.8 99 36 8 0.4 100.99     Drizzle,Fog
05:00 12.0 11.8 99 6 7 0.4 100.99     Fog
06:00 12.2 12.1 99 36 7 0.4 101.03     Drizzle,Fog
07:00 12.4 12.3 99 34 7 0.8 101.09     Drizzle,Fog
08:00 12.7 12.6 99 34 5 1.6 101.09     Drizzle,Fog
09:00 12.7 12.6 99   0 4.0 101.10     Drizzle,Fog
10:00 13.2 12.9 98 23 7 12.9 101.07     Fog
11:00 13.7 13.4 98 26 9 24.1 101.05     LegendNANA
12:00 14.2 12.8 91 28 13 24.1 101.07     LegendNANA
13:00 14.9 12.4 85 31 17 24.1 101.09     Cloudy
14:00 14.4 11.5 83 34 18 24.1 101.08     LegendNANA
15:00 13.8 10.6 81 34 19 24.1 101.12     LegendNANA
16:00 13.5 10.1 80 33 22 24.1 101.16     Cloudy
17:00 12.7 9.6 81 33 17 24.1 101.21     LegendNANA
18:00 12.6 8.8 77 36 14 24.1 101.21     LegendNANA
19:00 12.4 8.9 79 34 9 24.1 101.24     Cloudy
20:00 12.3 8.9 80 34 10 24.1 101.27     LegendNANA
21:00 11.7 8.4 80 2 13 24.1 101.20     LegendNANA
22:00 11.3 7.7 78 35 14 24.1 101.23     Mostly Cloudy
23:00 10.7 7.8 82 36 9 24.1 101.23     LegendNANA

Notes on Data Quality.

Legend

  • E = Estimated
  • M = Missing
  • NA = Not Available*
  • [empty] = Indicates an unobserved value
Date modified: